| time (UTC) | temp C | wind direction | speed KPH | gust KPH | rain 1hr cm | rain 24hr cm | rain mn cm | humidity % | barometer mb |
| 20260504011136 | 22 | 209 | 16.1 | 29.0 | 0.00 | 0.00 | 0.00 | 31 | 1011.8 |
| 20260504010632 | 23 | 218 | 12.9 | 32.2 | 0.00 | 0.00 | 0.00 | 31 | 1012.0 |
| 20260504010128 | 23 | 206 | 20.9 | 29.0 | 0.00 | 0.00 | 0.00 | 30 | 1012.0 |
| 20260504005625 | 23 | 210 | 11.3 | 27.4 | 0.00 | 0.00 | 0.00 | 31 | 1012.1 |
| 20260504005122 | 23 | 215 | 27.4 | 29.0 | 0.00 | 0.00 | 0.00 | 30 | 1012.1 |
| 20260504004620 | 23 | 203 | 24.1 | 35.4 | 0.00 | 0.00 | 0.00 | 30 | 1012.1 |
| 20260504004117 | 23 | 211 | 29.0 | 33.8 | 0.00 | 0.00 | 0.00 | 29 | 1012.3 |
| 20260504003614 | 23 | 214 | 20.9 | 29.0 | 0.00 | 0.00 | 0.00 | 29 | 1012.0 |
| 20260504003110 | 23 | 214 | 27.4 | 35.4 | 0.00 | 0.00 | 0.00 | 29 | 1012.1 |
| 20260504002607 | 23 | 212 | 27.4 | 35.4 | 0.00 | 0.00 | 0.00 | 29 | 1012.3 |
| 20260504002105 | 24 | 216 | 27.4 | 40.2 | 0.00 | 0.00 | 0.00 | 29 | 1012.5 |
| 20260504001602 | 24 | 229 | 24.1 | 38.6 | 0.00 | 0.00 | 0.00 | 29 | 1012.5 |
| 20260504001058 | 24 | 209 | 27.4 | 33.8 | 0.00 | 0.00 | 0.00 | 29 | 1012.2 |
| 20260504000555 | 24 | 218 | 24.1 | 37.0 | 0.00 | 0.00 | 0.00 | 29 | 1012.7 |
| 20260504000053 | 24 | 197 | 27.4 | 40.2 | 0.00 | 0.00 | 0.00 | 29 | 1012.3 |
| 20260503235551 | 25 | 200 | 27.4 | 38.6 | 0.00 | 0.00 | 0.00 | 28 | 1012.3 |
| 20260503235048 | 25 | 210 | 30.6 | 37.0 | 0.00 | 0.00 | 0.00 | 28 | 1012.2 |
| 20260503234545 | 24 | 220 | 24.1 | 45.1 | 0.00 | 0.00 | 0.00 | 29 | 1012.5 |
| 20260503234043 | 25 | 216 | 30.6 | 43.5 | 0.00 | 0.00 | 0.00 | 28 | 1012.3 |
| 20260503233539 | 25 | 210 | 24.1 | 35.4 | 0.00 | 0.00 | 0.00 | 27 | 1012.2 |
| 20260503233035 | 25 | 211 | 38.6 | 45.1 | 0.00 | 0.00 | 0.00 | 28 | 1012.5 |
| 20260503232533 | 25 | 202 | 22.5 | 32.2 | 0.00 | 0.00 | 0.00 | 28 | 1012.5 |
| 20260503232030 | 25 | 213 | 30.6 | 33.8 | 0.00 | 0.00 | 0.00 | 28 | 1012.3 |
| 20260503231528 | 25 | 221 | 24.1 | 37.0 | 0.00 | 0.00 | 0.00 | 26 | 1012.5 |
| 20260503231024 | 25 | 203 | 24.1 | 43.5 | 0.00 | 0.00 | 0.00 | 26 | 1012.5 |
| 20260503230521 | 25 | 208 | 20.9 | 32.2 | 0.00 | 0.00 | 0.00 | 26 | 1012.2 |
| 20260503230019 | 25 | 206 | 24.1 | 35.4 | 0.00 | 0.00 | 0.00 | 25 | 1012.5 |
| 20260503225515 | 26 | 218 | 46.7 | 57.9 | 0.00 | 0.00 | 0.00 | 25 | 1012.0 |
| 20260503225010 | 26 | 176 | 22.5 | 41.8 | 0.00 | 0.00 | 0.00 | 24 | 1012.6 |
| 20260503224508 | 25 | 221 | 24.1 | 43.5 | 0.00 | 0.00 | 0.00 | 25 | 1012.8 |
| 20260503224006 | 25 | 211 | 25.7 | 40.2 | 0.00 | 0.00 | 0.00 | 25 | 1012.7 |
| 20260503223503 | 25 | 231 | 19.3 | 27.4 | 0.00 | 0.00 | 0.00 | 25 | 1012.8 |
| 20260503222958 | 25 | 228 | 25.7 | 37.0 | 0.00 | 0.00 | 0.00 | 25 | 1012.7 |
| 20260503222457 | 25 | 204 | 25.7 | 29.0 | 0.00 | 0.00 | 0.00 | 24 | 1013.0 |
| 20260503221955 | 25 | 206 | 17.7 | 40.2 | 0.00 | 0.00 | 0.00 | 25 | 1012.9 |
| 20260503221453 | 25 | 208 | 19.3 | 35.4 | 0.00 | 0.00 | 0.00 | 24 | 1013.2 |
| 20260503220949 | 26 | 213 | 24.1 | 30.6 | 0.00 | 0.00 | 0.00 | 24 | 1013.2 |
| 20260503220446 | 25 | 213 | 29.0 | 37.0 | 0.00 | 0.00 | 0.00 | 24 | 1013.1 |
| 20260503215943 | 25 | 206 | 25.7 | 32.2 | 0.00 | 0.00 | 0.00 | 26 | 1013.3 |
| 20260503215440 | 25 | 226 | 27.4 | 41.8 | 0.00 | 0.00 | 0.00 | 25 | 1013.5 |
| 20260503214938 | 25 | 214 | 20.9 | 27.4 | 0.00 | 0.00 | 0.00 | 25 | 1013.6 |
| 20260503214435 | 25 | 215 | 17.7 | 30.6 | 0.00 | 0.00 | 0.00 | 24 | 1013.6 |
| 20260503213932 | 25 | 246 | 14.5 | 32.2 | 0.00 | 0.00 | 0.00 | 24 | 1013.9 |
| 20260503213431 | 25 | 218 | 22.5 | 25.7 | 0.00 | 0.00 | 0.00 | 25 | 1013.8 |
| 20260503212926 | 25 | 240 | 19.3 | 41.8 | 0.00 | 0.00 | 0.00 | 25 | 1013.8 |
| 20260503212424 | 25 | 224 | 22.5 | 37.0 | 0.00 | 0.00 | 0.00 | 25 | 1014.1 |
| 20260503211921 | 24 | 211 | 19.3 | 35.4 | 0.00 | 0.00 | 0.00 | 25 | 1014.1 |
| 20260503211418 | 25 | 223 | 20.9 | 33.8 | 0.00 | 0.00 | 0.00 | 25 | 1014.3 |
| 20260503210913 | 25 | 208 | 29.0 | 32.2 | 0.00 | 0.00 | 0.00 | 24 | 1014.2 |
| 20260503210410 | 25 | 229 | 22.5 | 40.2 | 0.00 | 0.00 | 0.00 | 25 | 1014.3 |
| 20260503205904 | 25 | 206 | 20.9 | 25.7 | 0.00 | 0.00 | 0.00 | 25 | 1014.5 |
| 20260503205402 | 25 | 210 | 24.1 | 29.0 | 0.00 | 0.00 | 0.00 | 25 | 1014.6 |
| 20260503204858 | 25 | 239 | 27.4 | 35.4 | 0.00 | 0.00 | 0.00 | 24 | 1014.6 |
| 20260503204356 | 25 | 225 | 19.3 | 29.0 | 0.00 | 0.00 | 0.00 | 24 | 1014.8 |
| 20260503203853 | 25 | 234 | 19.3 | 25.7 | 0.00 | 0.00 | 0.00 | 24 | 1014.8 |
| 20260503203350 | 25 | 205 | 30.6 | 43.5 | 0.00 | 0.00 | 0.00 | 25 | 1015.0 |
| 20260503202846 | 25 | 207 | 29.0 | 33.8 | 0.00 | 0.00 | 0.00 | 24 | 1015.2 |
| 20260503202345 | 26 | 225 | 25.7 | 29.0 | 0.00 | 0.00 | 0.00 | 24 | 1015.2 |
| 20260503201843 | 25 | 234 | 25.7 | 37.0 | 0.00 | 0.00 | 0.00 | 25 | 1015.3 |
| 20260503201339 | 25 | 221 | 22.5 | 29.0 | 0.00 | 0.00 | 0.00 | 25 | 1015.3 |
| 20260503200837 | 24 | 229 | 16.1 | 29.0 | 0.00 | 0.00 | 0.00 | 25 | 1015.5 |
| 20260503200332 | 25 | 213 | 25.7 | 35.4 | 0.00 | 0.00 | 0.00 | 25 | 1015.5 |
| 20260503195831 | 25 | 231 | 32.2 | 37.0 | 0.00 | 0.00 | 0.00 | 26 | 1015.6 |
| 20260503195327 | 25 | 209 | 32.2 | 37.0 | 0.00 | 0.00 | 0.00 | 24 | 1015.6 |
| 20260503194824 | 24 | 225 | 22.5 | 40.2 | 0.00 | 0.00 | 0.00 | 25 | 1016.1 |
| 20260503194320 | 24 | 206 | 12.9 | 30.6 | 0.00 | 0.00 | 0.00 | 26 | 1016.0 |
| 20260503193816 | 24 | 207 | 22.5 | 41.8 | 0.00 | 0.00 | 0.00 | 25 | 1016.0 |
| 20260503193312 | 25 | 229 | 20.9 | 37.0 | 0.00 | 0.00 | 0.00 | 24 | 1016.1 |
| 20260503192808 | 24 | 199 | 30.6 | 35.4 | 0.00 | 0.00 | 0.00 | 26 | 1016.1 |
| 20260503192305 | 23 | 216 | 22.5 | 40.2 | 0.00 | 0.00 | 0.00 | 28 | 1016.1 |
| 20260503191800 | 23 | 207 | 22.5 | 35.4 | 0.00 | 0.00 | 0.00 | 27 | 1016.5 |
| 20260503191258 | 23 | 232 | 27.4 | 45.1 | 0.00 | 0.00 | 0.00 | 27 | 1016.5 |
| 20260503190754 | 23 | 217 | 20.9 | 40.2 | 0.00 | 0.00 | 0.00 | 27 | 1016.2 |
| 20260503190251 | 23 | 217 | 24.1 | 33.8 | 0.00 | 0.00 | 0.00 | 29 | 1016.5 |
| 20260503185748 | 23 | 225 | 29.0 | 37.0 | 0.00 | 0.00 | 0.00 | 27 | 1016.7 |
| 20260503185244 | 23 | 228 | 27.4 | 37.0 | 0.00 | 0.00 | 0.00 | 27 | 1016.8 |
| 20260503184738 | 23 | 224 | 14.5 | 35.4 | 0.00 | 0.00 | 0.00 | 27 | 1016.7 |
| 20260503184235 | 23 | 208 | 27.4 | 43.5 | 0.00 | 0.00 | 0.00 | 26 | 1016.9 |
| 20260503183731 | 23 | 215 | 33.8 | 45.1 | 0.00 | 0.00 | 0.00 | 28 | 1017.1 |
| 20260503183229 | 23 | 192 | 29.0 | 48.3 | 0.00 | 0.00 | 0.00 | 29 | 1017.0 |
| 20260503182726 | 23 | 229 | 25.7 | 33.8 | 0.00 | 0.00 | 0.00 | 29 | 1017.5 |
| 20260503182225 | 22 | 211 | 29.0 | 41.8 | 0.00 | 0.00 | 0.00 | 30 | 1017.2 |
| 20260503181721 | 23 | 220 | 22.5 | 29.0 | 0.00 | 0.00 | 0.00 | 28 | 1017.6 |
| 20260503181218 | 23 | 224 | 25.7 | 32.2 | 0.00 | 0.00 | 0.00 | 28 | 1017.5 |
| 20260503180715 | 23 | 209 | 27.4 | 37.0 | 0.00 | 0.00 | 0.00 | 28 | 1017.7 |
| 20260503180213 | 22 | 224 | 20.9 | 33.8 | 0.00 | 0.00 | 0.00 | 29 | 1017.7 |
| 20260503175710 | 22 | 218 | 16.1 | 40.2 | 0.00 | 0.00 | 0.00 | 29 | 1017.7 |
| 20260503175208 | 22 | 213 | 24.1 | 33.8 | 0.00 | 0.00 | 0.00 | 29 | 1017.8 |
| 20260503174703 | 22 | 203 | 22.5 | 38.6 | 0.00 | 0.00 | 0.00 | 31 | 1017.9 |
| 20260503174201 | 22 | 223 | 29.0 | 33.8 | 0.00 | 0.00 | 0.00 | 30 | 1018.0 |
| 20260503173656 | 21 | 216 | 25.7 | 33.8 | 0.00 | 0.00 | 0.00 | 32 | 1018.0 |
| 20260503173152 | 21 | 230 | 30.6 | 45.1 | 0.00 | 0.00 | 0.00 | 31 | 1018.1 |
| 20260503172649 | 21 | 229 | 22.5 | 38.6 | 0.00 | 0.00 | 0.00 | 32 | 1018.4 |
| 20260503172147 | 21 | 205 | 25.7 | 37.0 | 0.00 | 0.00 | 0.00 | 30 | 1018.5 |
| 20260503171643 | 21 | 203 | 24.1 | 37.0 | 0.00 | 0.00 | 0.00 | 33 | 1018.7 |
| 20260503171141 | 21 | 223 | 19.3 | 45.1 | 0.00 | 0.00 | 0.00 | 32 | 1018.5 |
| 20260503170637 | 21 | 208 | 17.7 | 33.8 | 0.00 | 0.00 | 0.00 | 33 | 1018.7 |
| 20260503170134 | 21 | 210 | 33.8 | 40.2 | 0.00 | 0.00 | 0.00 | 32 | 1018.9 |
| 20260503150526 | 17 | 229 | 19.3 | 33.8 | 0.00 | 0.00 | 0.00 | 47 | 1019.8 |
| 20260503131419 | 10 | 211 | 9.7 | 14.5 | 0.00 | 0.00 | 0.00 | 69 | 1020.4 |
| 20260503130915 | 10 | 220 | 6.4 | 12.9 | 0.00 | 0.00 | 0.00 | 71 | 1020.1 |
| 20260503130413 | 10 | 216 | 9.7 | 24.1 | 0.00 | 0.00 | 0.00 | 71 | 1020.2 |
| 20260503110812 | 8 | 229 | 3.2 | 11.3 | 0.00 | 0.00 | 0.00 | 76 | 1019.6 |
| 20260503110309 | 7 | 192 | 3.2 | 4.8 | 0.00 | 0.00 | 0.00 | 76 | 1019.6 |
| 20260503100235 | 10 | 224 | 3.2 | 17.7 | 0.00 | 0.00 | 0.00 | 70 | 1020.0 |
| 20260503090154 | 10 | 239 | 9.7 | 14.5 | 0.00 | 0.00 | 0.00 | 63 | 1019.7 |
| 20260503081629 | 10 | 220 | 4.8 | 17.7 | 0.00 | 0.00 | 0.00 | 58 | 1019.9 |
| 20260503081126 | 11 | 211 | 8.0 | 20.9 | 0.00 | 0.00 | 0.00 | 58 | 1019.9 |
| 20260503080622 | 11 | 236 | 8.0 | 22.5 | 0.00 | 0.00 | 0.00 | 57 | 1019.8 |
| 20260503080119 | 11 | 226 | 17.7 | 20.9 | 0.00 | 0.00 | 0.00 | 56 | 1019.8 |
| 20260503072556 | 11 | 223 | 9.7 | 14.5 | 0.00 | 0.00 | 0.00 | 53 | 1020.1 |
| 20260503072054 | 11 | 214 | 6.4 | 17.7 | 0.00 | 0.00 | 0.00 | 52 | 1020.1 |
| 20260503071550 | 10 | 206 | 11.3 | 14.5 | 0.00 | 0.00 | 0.00 | 52 | 1020.2 |
| 20260503071047 | 10 | 191 | 6.4 | 8.0 | 0.00 | 0.00 | 0.00 | 51 | 1020.2 |
| 20260503070543 | 10 | 197 | 6.4 | 9.7 | 0.00 | 0.00 | 0.00 | 51 | 1020.2 |
| 20260503055003 | 10 | 212 | 4.8 | 6.4 | 0.00 | 0.00 | 0.00 | 47 | 1020.1 |
| 20260503054458 | 10 | 184 | 6.4 | 8.0 | 0.00 | 0.00 | 0.00 | 46 | 1020.1 |
| 20260503053956 | 10 | 177 | 4.8 | 4.8 | 0.00 | 0.00 | 0.00 | 45 | 1020.0 |
| 20260503053454 | 10 | 183 | 3.2 | 4.8 | 0.00 | 0.00 | 0.00 | 46 | 1020.2 |
| 20260503052950 | 10 | 177 | 3.2 | 6.4 | 0.00 | 0.00 | 0.00 | 46 | 1020.1 |
| 20260503052448 | 10 | 180 | 4.8 | 6.4 | 0.00 | 0.00 | 0.00 | 45 | 1020.0 |
| 20260503051944 | 11 | 180 | 4.8 | 6.4 | 0.00 | 0.00 | 0.00 | 43 | 1020.1 |
| 20260503051440 | 11 | 192 | 3.2 | 4.8 | 0.00 | 0.00 | 0.00 | 42 | 1020.2 |
| 20260503050938 | 11 | 187 | 4.8 | 6.4 | 0.00 | 0.00 | 0.00 | 43 | 1020.0 |
| 20260503050433 | 11 | 192 | 6.4 | 8.0 | 0.00 | 0.00 | 0.00 | 42 | 1020.1 |
| 20260503045931 | 11 | 193 | 1.6 | 6.4 | 0.00 | 0.00 | 0.00 | 41 | 1020.0 |
| 20260503045429 | 11 | 196 | 4.8 | 4.8 | 0.00 | 0.00 | 0.00 | 41 | 1020.0 |
| 20260503044925 | 11 | 208 | 4.8 | 6.4 | 0.00 | 0.00 | 0.00 | 41 | 1020.0 |
| 20260503044422 | 11 | 205 | 4.8 | 6.4 | 0.00 | 0.00 | 0.00 | 40 | 1020.1 |
| 20260503043920 | 11 | 177 | 1.6 | 3.2 | 0.00 | 0.00 | 0.00 | 41 | 1020.1 |
| 20260503043416 | 11 | 184 | 6.4 | 6.4 | 0.00 | 0.00 | 0.00 | 40 | 1020.0 |
| 20260503042912 | 11 | 186 | 3.2 | 4.8 | 0.00 | 0.00 | 0.00 | 41 | 1019.9 |
| 20260503042409 | 10 | 173 | 1.6 | 6.4 | 0.00 | 0.00 | 0.00 | 41 | 1020.1 |
| 20260503041905 | 9 | 150 | 3.2 | 4.8 | 0.00 | 0.00 | 0.00 | 42 | 1020.0 |
| 20260503041402 | 9 | 159 | 3.2 | 4.8 | 0.00 | 0.00 | 0.00 | 42 | 1020.0 |
| 20260503040900 | 9 | 167 | 3.2 | 4.8 | 0.00 | 0.00 | 0.00 | 42 | 1020.0 |
| 20260503040357 | 8 | 142 | 3.2 | 4.8 | 0.00 | 0.00 | 0.00 | 43 | 1020.1 |
| 20260503035854 | 8 | 146 | 4.8 | 4.8 | 0.00 | 0.00 | 0.00 | 41 | 1020.1 |
| 20260503035351 | 9 | 144 | 4.8 | 4.8 | 0.00 | 0.00 | 0.00 | 41 | 1019.9 |
| 20260503034848 | 8 | 162 | 3.2 | 4.8 | 0.00 | 0.00 | 0.00 | 41 | 1020.1 |
| 20260503034346 | 8 | 153 | 4.8 | 4.8 | 0.00 | 0.00 | 0.00 | 41 | 1020.1 |
| 20260503033843 | 9 | 142 | 3.2 | 4.8 | 0.00 | 0.00 | 0.00 | 40 | 1020.1 |
| 20260503033340 | 9 | 161 | 4.8 | 4.8 | 0.00 | 0.00 | 0.00 | 40 | 1020.0 |
| 20260503032838 | 9 | 136 | 3.2 | 4.8 | 0.00 | 0.00 | 0.00 | 38 | 1020.0 |
| 20260503032337 | 10 | 152 | 4.8 | 4.8 | 0.00 | 0.00 | 0.00 | 38 | 1020.0 |
| 20260503031834 | 10 | 141 | 3.2 | 4.8 | 0.00 | 0.00 | 0.00 | 36 | 1019.9 |
| 20260503031332 | 11 | 145 | 3.2 | 3.2 | 0.00 | 0.00 | 0.00 | 35 | 1019.9 |
| 20260503030828 | 12 | 139 | 3.2 | 4.8 | 0.00 | 0.00 | 0.00 | 35 | 1019.9 |
| 20260503030324 | 12 | 159 | 3.2 | 3.2 | 0.00 | 0.00 | 0.00 | 34 | 1019.8 |
| 20260503025821 | 12 | 154 | 1.6 | 3.2 | 0.00 | 0.00 | 0.00 | 34 | 1019.7 |
| 20260503025319 | 12 | 148 | 3.2 | 4.8 | 0.00 | 0.00 | 0.00 | 33 | 1019.7 |
| 20260503024815 | 13 | 153 | 4.8 | 4.8 | 0.00 | 0.00 | 0.00 | 32 | 1019.7 |
| 20260503024312 | 13 | 145 | 3.2 | 4.8 | 0.00 | 0.00 | 0.00 | 32 | 1019.8 |
| 20260503023809 | 13 | 133 | 3.2 | 3.2 | 0.00 | 0.00 | 0.00 | 32 | 1019.7 |
| 20260503023307 | 14 | 143 | 4.8 | 4.8 | 0.00 | 0.00 | 0.00 | 31 | 1019.7 |
| 20260503022803 | 13 | 136 | 3.2 | 3.2 | 0.00 | 0.00 | 0.00 | 31 | 1019.5 |
| 20260503022304 | 14 | 138 | 3.2 | 4.8 | 0.00 | 0.00 | 0.00 | 32 | 1019.7 |
| 20260503021759 | 14 | 134 | 3.2 | 4.8 | 0.00 | 0.00 | 0.00 | 30 | 1019.6 |
| 20260503021255 | 16 | 149 | 4.8 | 8.0 | 0.00 | 0.00 | 0.00 | 29 | 1019.5 |
| 20260503020753 | 16 | 132 | 3.2 | 3.2 | 0.00 | 0.00 | 0.00 | 29 | 1019.5 |
| 20260503020251 | 16 | 134 | 3.2 | 3.2 | 0.00 | 0.00 | 0.00 | 29 | 1019.6 |
| 20260503015747 | 16 | 149 | 3.2 | 3.2 | 0.00 | 0.00 | 0.00 | 28 | 1019.2 |
| 20260503015244 | 17 | 137 | 3.2 | 3.2 | 0.00 | 0.00 | 0.00 | 28 | 1019.5 |
| 20260503014740 | 17 | 181 | 0.0 | 3.2 | 0.00 | 0.00 | 0.00 | 27 | 1019.1 |
| 20260503014238 | 17 | 208 | 1.6 | 3.2 | 0.00 | 0.00 | 0.00 | 28 | 1019.4 |
| 20260503013735 | 17 | 198 | 0.0 | 3.2 | 0.00 | 0.00 | 0.00 | 28 | 1019.1 |
| 20260503013233 | 17 | 195 | 3.2 | 6.4 | 0.00 | 0.00 | 0.00 | 27 | 1019.1 |
| 20260503012730 | 17 | 180 | 3.2 | 4.8 | 0.00 | 0.00 | 0.00 | 27 | 1019.2 |
| 20260503012227 | 18 | 187 | 4.8 | 6.4 | 0.00 | 0.00 | 0.00 | 26 | 1018.8 |
| 20260503011724 | 18 | 198 | 4.8 | 6.4 | 0.00 | 0.00 | 0.00 | 25 | 1019.0 |